TimeCST,TemperatureF,Dew PointF,Humidity,Sea Level PressureIn,VisibilityMPH,Wind Direction,Wind SpeedMPH,Gust SpeedMPH,PrecipitationIn,Events,Conditions,WindDirDegrees,DateUTC
12:53 AM,55.0,35.1,47,30.18,10.0,South,10.4,-,N/A,,Mostly Cloudy,170,2012-11-19 06:53:00
1:53 AM,55.0,35.1,47,30.19,10.0,South,12.7,-,0.00,,Overcast,180,2012-11-19 07:53:00
2:53 AM,51.1,42.1,71,30.22,6.0,South,13.8,24.2,0.02,Rain,Rain,190,2012-11-19 08:53:00
3:53 AM,48.0,44.1,86,30.21,6.0,South,12.7,-,0.11,Rain,Light Rain,180,2012-11-19 09:53:00
4:53 AM,48.0,45.0,89,30.20,10.0,South,10.4,-,0.03,Rain,Light Rain,170,2012-11-19 10:53:00
5:53 AM,48.2,44.6,87,30.19,10.0,South,11.5,-,N/A,,Overcast,170,2012-11-19 11:53:00
6:53 AM,48.9,45.0,86,30.18,10.0,South,13.8,-,0.00,Rain,Light Rain,170,2012-11-19 12:53:00
7:53 AM,48.9,45.0,86,30.19,6.0,SSE,11.5,-,0.01,Rain,Light Rain,160,2012-11-19 13:53:00
8:53 AM,52.0,45.0,77,30.19,10.0,South,12.7,-,0.00,,Overcast,170,2012-11-19 14:53:00
9:53 AM,55.0,44.1,67,30.19,10.0,South,15.0,-,N/A,,Overcast,190,2012-11-19 15:53:00
10:53 AM,60.1,44.1,55,30.17,10.0,South,13.8,-,N/A,,Clear,190,2012-11-19 16:53:00
11:53 AM,61.0,44.1,54,30.16,10.0,South,13.8,-,N/A,,Scattered Clouds,190,2012-11-19 17:53:00
12:53 PM,64.9,46.9,52,30.13,10.0,WSW,10.4,-,N/A,,Clear,240,2012-11-19 18:53:00
1:53 PM,66.0,48.0,52,30.10,10.0,SW,9.2,-,N/A,,Clear,220,2012-11-19 19:53:00
2:53 PM,64.9,48.0,54,30.10,10.0,SSW,11.5,-,N/A,,Clear,210,2012-11-19 20:53:00
3:53 PM,64.0,48.9,58,30.12,10.0,WSW,9.2,-,N/A,,Clear,250,2012-11-19 21:53:00
4:53 PM,61.0,48.0,62,30.12,10.0,WSW,5.8,-,N/A,,Clear,250,2012-11-19 22:53:00
5:53 PM,57.0,46.9,69,30.13,10.0,SSW,3.5,-,N/A,,Clear,210,2012-11-19 23:53:00
6:53 PM,54.0,46.9,77,30.15,10.0,Calm,Calm,-,N/A,,Clear,0,2012-11-20 00:53:00
7:53 PM,51.1,45.0,80,30.15,10.0,South,8.1,-,N/A,,Clear,180,2012-11-20 01:53:00
8:53 PM,52.0,45.0,77,30.15,10.0,South,9.2,-,N/A,,Clear,180,2012-11-20 02:53:00
9:53 PM,51.1,45.0,80,30.14,10.0,South,8.1,-,N/A,,Clear,190,2012-11-20 03:53:00
10:53 PM,50.0,45.0,83,30.14,10.0,SSW,8.1,-,N/A,,Clear,200,2012-11-20 04:53:00
11:53 PM,52.0,45.0,77,30.14,10.0,SSW,8.1,-,N/A,,Clear,210,2012-11-20 05:53:00